This demonstration page uses our WeatherBlox Daily Observations layout. Learn more.

Left ArrowRight Arrow

39.01783, -85.05884

Hourly Observations for April 15, 2020

Temp ( °F °C ) Dew Point ( °F °C ) Humidity (%) Winds ( mph kmh ) Pressure ( in mb ) Visibility ( mi km ) Precip ( " mm )
12:52 am 00:52 Clear 33 0.6 21 -6.1 61 61 W 3 6 30.16 1021 10 16 N/A
1:52 am 01:52 Clear 30 -1.1 17 -8.3 58 58 WSW 3 6 30.16 1021 10 16 N/A
2:52 am 02:52 Clear 29 -1.7 18 -7.8 63 63 N N/A 30.14 1021 10 16 N/A
3:52 am 03:52 Clear 32 undefined 18 -7.8 56 56 SW 6 9 30.12 1020 10 16 N/A
4:52 am 04:52 Clear 27 -2.8 23 -5 85 85 S 6 9 30.11 1020 10 16 N/A
5:52 am 05:52 Clear 28 -2.2 22 -5.6 78 78 S 5 7 30.11 1020 10 16 N/A
6:52 am 06:52 Clear 26 -3.3 19 -7.2 75 75 S 7 11 30.10 1019 10 16 N/A
7:52 am 07:52 Sunny 30 -1.1 20 -6.7 66 66 SSW 7 11 30.10 1019 10 16 N/A
8:52 am 08:52 Sunny 37 2.8 21 -6.1 52 52 SSW 7 11 30.09 1019 10 16 N/A
9:52 am 09:52 Sunny 42 5.6 20 -6.7 41 41 SSW 10 17 30.08 1019 10 16 N/A
10:52 am 10:52 Sunny 46 7.8 20 -6.7 35 35 SSW 15 24 30.07 1018 10 16 N/A
11:52 am 11:52 Sunny 48 8.9 18 -7.8 30 30 SSW 13 20 30.04 1017 10 16 N/A
12:52 pm 12:52 Mostly Sunny 51 10.6 20 -6.7 29 29 WSW 16 26 30.01 1016 10 16 N/A
1:52 pm 13:52 Mostly Cloudy 52 11.1 19 -7.2 27 27 WSW 17 28 29.98 1015 10 16 N/A
2:52 pm 14:52 Cloudy 50 10 21 -6.1 32 32 W 21 33 29.98 1015 10 16 N/A
3:52 pm 15:52 Cloudy 49 9.4 25 -3.9 39 39 W 24 39 29.99 1016 10 16 N/A
4:52 pm 16:52 Cloudy 49 9.4 32 undefined 52 52 W 23 37 30.01 1016 10 16 N/A
5:37 pm 17:37 Cloudy 44 6.7 34 1.1 68 68 WNW 23 37 30.04 1017 10 16 0.00 0.00
5:52 pm 17:52 Cloudy with Light Rain 41 5 34 1.1 76 76 WNW 17 28 30.04 1017 9 14 N/A
6:52 pm 18:52 Mostly Cloudy 44 6.7 33 0.6 65 65 NW 17 28 30.07 1018 10 16 0.01 0.25
7:52 pm 19:52 Mostly Sunny 41 5 25 -3.9 53 53 NW 14 22 30.09 1019 10 16 N/A
8:52 pm 20:52 Clear 39 3.9 21 -6.1 48 48 NW 12 19 30.11 1020 10 16 N/A
9:52 pm 21:52 Clear 37 2.8 21 -6.1 52 52 NW 9 15 30.14 1021 10 16 N/A
10:52 pm 22:52 Clear 36 2.2 22 -5.6 57 57 NNW 10 17 30.18 1022 10 16 N/A
11:52 pm 23:52 Clear 34 1.1 21 -6.1 59 59 NNW 8 13 30.19 1023 10 16 N/A

Powered by AerisWeather